• In Belarus
  • List of Countries
  • For 7 days
  • Water Temperature
  • Satellite Maps
  • Weather Map
  • Weather Widgets
  • user-avatar
    Login

    Hourly Weather Lowech

    Today, 20 May, Monday

    Time Temperature Precipitation Wind Pressure Humidity
    00:00 +18°C° 0 mm 3 mps 730 mmHg 53%
    01:00 +17°C° 0 mm 2 mps 730 mmHg 54%
    02:00 +16°C° 0 mm 2 mps 730 mmHg 54%
    03:00 +16°C° 0 mm 2 mps 730 mmHg 55%
    04:00 +16°C° 0 mm 2 mps 730 mmHg 55%
    05:00 +15°C° 0 mm 1 mps 730 mmHg 56%
    06:00 +18°C° 0 mm 1 mps 730 mmHg 58%
    07:00 +19°C° 0 mm 1 mps 730 mmHg 60%
    08:00 +21°C° 0 mm 1 mps 731 mmHg 61%
    09:00 +22°C° 0 mm 1 mps 731 mmHg 60%
    10:00 +23°C° 0 mm 2 mps 731 mmHg 58%
    11:00 +25°C° 0 mm 2 mps 731 mmHg 57%
    12:00 +25°C° 0.1 mm 2 mps 731 mmHg 57%
    13:00 +25°C° 0.1 mm 2 mps 731 mmHg 58%
    14:00 +26°C° 0.1 mm 2 mps 731 mmHg 58%
    15:00 +24°C° 3.2 mm 3 mps 730 mmHg 67%
    16:00 +21°C° 3.2 mm 3 mps 730 mmHg 76%
    17:00 +20°C° 3.2 mm 3 mps 730 mmHg 86%
    18:00 +18°C° 0.5 mm 3 mps 730 mmHg 86%
    19:00 +17°C° 0.5 mm 2 mps 730 mmHg 87%
    20:00 +16°C° 0.5 mm 2 mps 731 mmHg 88%
    21:00 +16°C° 0 mm 2 mps 731 mmHg 87%
    22:00 +15°C° 0 mm 2 mps 732 mmHg 86%
    23:00 +15°C° 0 mm 2 mps 732 mmHg 84%

    Tomorrow, 21 May, Tuesday

    Time Temperature Precipitation Wind Pressure Humidity
    00:00 +14°C° 0 mm 2 mps 732 mmHg 84%
    01:00 +14°C° 0 mm 2 mps 732 mmHg 83%
    02:00 +13°C° 0 mm 2 mps 733 mmHg 82%
    03:00 +13°C° 0 mm 2 mps 733 mmHg 81%
    04:00 +13°C° 0 mm 2 mps 733 mmHg 81%
    05:00 +12°C° 0 mm 2 mps 733 mmHg 80%
    06:00 +15°C° 0 mm 2 mps 733 mmHg 76%
    07:00 +18°C° 0 mm 1 mps 733 mmHg 71%
    08:00 +20°C° 0 mm 1 mps 734 mmHg 66%
    09:00 +20°C° 0.1 mm 2 mps 734 mmHg 61%
    10:00 +21°C° 0.1 mm 2 mps 734 mmHg 57%
    11:00 +21°C° 0.1 mm 3 mps 734 mmHg 52%
    12:00 +23°C° 0.1 mm 2 mps 734 mmHg 51%
    13:00 +23°C° 0.1 mm 2 mps 734 mmHg 49%
    14:00 +23°C° 0.1 mm 2 mps 734 mmHg 48%
    15:00 +23°C° 0.1 mm 2 mps 734 mmHg 50%
    16:00 +23°C° 0.1 mm 1 mps 733 mmHg 53%
    17:00 +23°C° 0.1 mm 1 mps 733 mmHg 55%
    18:00 +21°C° 0.1 mm 1 mps 734 mmHg 58%
    19:00 +19°C° 0.1 mm 1 mps 734 mmHg 62%
    20:00 +16°C° 0.1 mm 1 mps 734 mmHg 65%
    21:00 +16°C° 0 mm 2 mps 734 mmHg 66%
    22:00 +15°C° 0 mm 2 mps 735 mmHg 67%
    23:00 +14°C° 0 mm 2 mps 735 mmHg 68%

    Day after tomorrow, 22 May, Wednesday

    Time Temperature Precipitation Wind Pressure Humidity
    00:00 +14°C° 0 mm 2 mps 735 mmHg 67%
    01:00 +14°C° 0 mm 2 mps 735 mmHg 66%
    02:00 +14°C° 0 mm 2 mps 735 mmHg 66%
    03:00 +13°C° 0 mm 2 mps 736 mmHg 66%
    04:00 +13°C° 0 mm 2 mps 736 mmHg 66%
    05:00 +13°C° 0 mm 2 mps 736 mmHg 67%
    06:00 +15°C° 0 mm 2 mps 736 mmHg 64%
    07:00 +18°C° 0 mm 1 mps 736 mmHg 61%
    08:00 +20°C° 0 mm 1 mps 736 mmHg 58%
    09:00 +21°C° 0 mm 1 mps 736 mmHg 56%
    10:00 +21°C° 0 mm 2 mps 737 mmHg 53%
    11:00 +23°C° 0 mm 2 mps 737 mmHg 50%
    12:00 +24°C° 0 mm 2 mps 736 mmHg 49%
    13:00 +25°C° 0 mm 2 mps 736 mmHg 49%
    14:00 +25°C° 0 mm 2 mps 736 mmHg 48%
    15:00 +25°C° 0 mm 2 mps 735 mmHg 51%
    16:00 +24°C° 0 mm 2 mps 735 mmHg 54%
    17:00 +24°C° 0 mm 1 mps 735 mmHg 57%
    18:00 +22°C° 0 mm 1 mps 735 mmHg 62%
    19:00 +20°C° 0 mm 1 mps 735 mmHg 67%
    20:00 +18°C° 0 mm 1 mps 735 mmHg 73%
    21:00 +18°C° 0 mm 1 mps 735 mmHg 73%
    22:00 +16°C° 0 mm 2 mps 735 mmHg 72%
    23:00 +16°C° 0 mm 2 mps 735 mmHg 72%

    23 May, Thursday

    Time Temperature Precipitation Wind Pressure Humidity
    00:00 +16°C° 0 mm 2 mps 735 mmHg 71%
    01:00 +16°C° 0 mm 1 mps 735 mmHg 71%
    02:00 +15°C° 0 mm 1 mps 735 mmHg 70%
    03:00 +15°C° 0 mm 1 mps 735 mmHg 72%
    04:00 +14°C° 0 mm 1 mps 734 mmHg 74%
    05:00 +14°C° 0 mm 1 mps 734 mmHg 76%
    06:00 +16°C° 0 mm 1 mps 735 mmHg 74%
    07:00 +18°C° 0 mm 1 mps 735 mmHg 71%
    08:00 +20°C° 0 mm 1 mps 735 mmHg 69%
    09:00 +20°C° 0.1 mm 2 mps 735 mmHg 67%
    10:00 +21°C° 0.1 mm 2 mps 735 mmHg 65%
    11:00 +23°C° 0.1 mm 2 mps 735 mmHg 63%
    12:00 +24°C° 0.4 mm 2 mps 734 mmHg 63%
    13:00 +24°C° 0.4 mm 2 mps 734 mmHg 64%
    14:00 +24°C° 0.4 mm 2 mps 733 mmHg 64%
    15:00 +24°C° 0.6 mm 2 mps 733 mmHg 66%
    16:00 +24°C° 0.6 mm 2 mps 733 mmHg 68%
    17:00 +23°C° 0.6 mm 2 mps 732 mmHg 70%
    18:00 +21°C° 0.4 mm 2 mps 732 mmHg 75%
    19:00 +20°C° 0.4 mm 1 mps 732 mmHg 80%
    20:00 +18°C° 0.4 mm 1 mps 732 mmHg 85%
    21:00 +18°C° 0.3 mm 1 mps 732 mmHg 85%
    22:00 +18°C° 0.3 mm 1 mps 733 mmHg 86%
    23:00 +16°C° 0.3 mm 2 mps 733 mmHg 87%

    24 May, Friday

    Time Temperature Precipitation Wind Pressure Humidity
    00:00 +16°C° 0 mm 2 mps 733 mmHg 87%
    01:00 +16°C° 0 mm 2 mps 732 mmHg 87%
    02:00 +14°C° 0 mm 3 mps 732 mmHg 87%
    03:00 +14°C° 0 mm 3 mps 732 mmHg 86%
    04:00 +14°C° 0 mm 3 mps 732 mmHg 85%
    05:00 +13°C° 0 mm 3 mps 732 mmHg 84%
    06:00 +14°C° 0 mm 3 mps 732 mmHg 83%
    07:00 +15°C° 0 mm 4 mps 732 mmHg 82%
    08:00 +15°C° 0 mm 4 mps 733 mmHg 81%
    09:00 +17°C° 0.3 mm 4 mps 732 mmHg 81%
    10:00 +17°C° 0.3 mm 3 mps 732 mmHg 81%
    11:00 +17°C° 0.3 mm 3 mps 732 mmHg 82%
    12:00 +18°C° 0.1 mm 3 mps 732 mmHg 78%
    13:00 +19°C° 0.1 mm 3 mps 731 mmHg 74%
    14:00 +20°C° 0.1 mm 4 mps 731 mmHg 70%
    15:00 +20°C° 0.2 mm 3 mps 731 mmHg 72%
    16:00 +20°C° 0.2 mm 3 mps 731 mmHg 74%
    17:00 +20°C° 0.2 mm 3 mps 730 mmHg 75%
    18:00 +18°C° 0.2 mm 3 mps 730 mmHg 78%
    19:00 +17°C° 0.2 mm 3 mps 730 mmHg 82%
    20:00 +16°C° 0.2 mm 3 mps 730 mmHg 85%
    21:00 +14°C° 0 mm 3 mps 731 mmHg 86%
    22:00 +14°C° 0 mm 3 mps 731 mmHg 87%
    23:00 +13°C° 0 mm 3 mps 731 mmHg 87%

    25 May, Saturday

    Time Temperature Precipitation Wind Pressure Humidity
    00:00 +13°C° 0 mm 3 mps 731 mmHg 88%
    01:00 +14°C° 0 mm 2 mps 731 mmHg 88%
    02:00 +13°C° 0 mm 2 mps 731 mmHg 88%
    03:00 +13°C° 0 mm 2 mps 731 mmHg 87%
    04:00 +13°C° 0 mm 2 mps 731 mmHg 87%
    05:00 +13°C° 0 mm 2 mps 731 mmHg 87%
    06:00 +14°C° 0 mm 2 mps 731 mmHg 84%
    07:00 +14°C° 0 mm 3 mps 732 mmHg 81%
    08:00 +16°C° 0 mm 3 mps 732 mmHg 79%
    09:00 +17°C° 0 mm 3 mps 732 mmHg 75%
    10:00 +18°C° 0 mm 3 mps 732 mmHg 72%
    11:00 +20°C° 0 mm 3 mps 732 mmHg 69%
    12:00 +20°C° 0.2 mm 2 mps 732 mmHg 68%
    13:00 +21°C° 0.2 mm 2 mps 732 mmHg 66%
    14:00 +21°C° 0.2 mm 2 mps 731 mmHg 65%
    15:00 +21°C° 0.5 mm 2 mps 731 mmHg 66%
    16:00 +22°C° 0.5 mm 1 mps 731 mmHg 67%
    17:00 +22°C° 0.5 mm 1 mps 731 mmHg 68%
    18:00 +21°C° 0.4 mm 1 mps 731 mmHg 73%
    19:00 +19°C° 0.4 mm 1 mps 731 mmHg 78%
    20:00 +16°C° 0.4 mm 1 mps 732 mmHg 83%
    21:00 +16°C° 0.1 mm 1 mps 732 mmHg 83%
    22:00 +15°C° 0.1 mm 2 mps 732 mmHg 83%
    23:00 +15°C° 0.1 mm 2 mps 732 mmHg 83%
    Show more